SCP
0 0 0 0 0 0 0 0 0 0 0 0 0 0 0 0 0 0 0 0 0 0 0 0 0 0 0 0 0 0 0 0 0 0 0 0 0 0 0 0 0 0 0
0 0 0 0 0 0 0 0 0 0 0 0 0 0 0 0 0 0 0 0 0 0 0 0 0 0 0 0 0 0 0 0 0 0 0 0 0 0 0 0 0 0 0
0 0 0 0 0 0 0 0 0 0 0 0 0 0 0 0 0 0 0 0 0 0 0 0 0 0 0 0 0 0 0 0 0 0 0 0 0 0 0 0 0 0 0
0 0 0 0 0 0 0 0 0 0 0 0 0 0 0 0 0 0 0 0 0 0 0 0 0 0 0 0 0 0 0 0 0 0 0 0 0 0 0 0 0 0 0
0 0 0 0 0 0 0 0 0 0 0 0 0 0 0 0 0 0 0 0 0 0 0 0 0 0 0 0 0 0 0 0 0 0 0 0 0 0 0 0 0 0 0
0 0 0 0 0 0 0 0 0 0 0 0 0 0 0 0 0 0 0 0 0 0 0 0 0 0 0 0 0 0 0 0 0 0 0 0 0 0 0 0 0 0 0
0 0 0 0 0 0 0 0 0 0 0 0 0 0 0 0 0 0 0 0 0 0 0 0 0 0 0 0 0 0 0 0 0 0 0 0 0 0 0 0 0 0 0
0 0 0 0 0 0 0 0 0 0 0 0 0 0 0 0 0 0 0 0 0 0 0 0 0 0 0 0 0 0 0 0 0 0 0 0 0 0 0 0 0 0 0
0 0 0 0 0 0 0 0 0 0 0 0 0 0 0 0 0 0 0 0 0 0 0 0 0 0 0 0 0 0 0 0 0 0 0 0 0 0 0 0 0 0 0
0 0 0 0 0 0 0 0 0 0 0 0 0 0 0 0 0 0 0 0 0 0 0 0 0 0 0 0 0 0 0 0 0 0 0 0 0 0 0 0 0 0 0
0 0 0 0 0 0 0 0 0 0 0 0 0 0 0 0 0 0 0 0 0 0 0 0 0 0 0 0 0 0 0 0 0 0 0 0 0 0 0 0 0 0 0
0 0 0 0 0 0 0 0 0 0 0 0 0 0 0 0 0 0 0 0 0 0 0 0 0 0 0 0 0 0 0 0 0 0 0 0 0 0 0 0 0 0 0
0 0 0 0 0 0 0 0 0 0 0 0 0 0 0 0 0 0 0 0 0 0 0 0 0 0 0 0 0 0 0 0 0 0 0 0 0 0 0 0 0 0 0
0 0 0 0 0 0 0 0 0 0 0 0 0 0 0 0 0 0 0 0 0 0 0 0 0 0 0 0 0 0 0 0 0 0 0 0 0 0 0 0 0 0 0
0 0 0 0 0 0 0 0 0 0 0 0 0 0 0 0 0 0 0 0 0 0 0 0 0 0 0 0 0 0 0 0 0 0 0 0 0 0 0 0 0 0 0
0 0 0 0 0 0 0 0 0 0 0 0 0 0 0 0 0 0 0 0 0 0 0 0 0 0 0 0 0 0 0 0 0 0 0 0 0 0 0 0 0 0 0
0 0 0 0 0 0 0 0 0 0 0 0 0 0 0 0 0 0 0 0 0 0 0 0 0 0 0 0 0 0 0 0 0 0 0 0 0 0 0 0 0 0 0
0 0 0 0 0 0 0 0 0 0 0 0 0 0 0 0 0 0 0 0 0 0 0 0 0 0 0 0 0 0 0 0 0 0 0 0 0 0 0 0 0 0 0
0 0 0 0 0 0 0 0 0 0 0 0 0 0 0 0 0 0 0 0 0 0 0 0 0 0 0 0 0 0 0 0 0 0 0 0 0 0 0 0 0 0 0
0 0 0 0 0 0 0 0 0 0 0 0 0 0 0 0 0 0 0 0 0 0 0 0 0 0 0 0 0 0 0 0 0 0 0 0 0 0 0 0 0 0 0
0 0 0 0 0 0 0 0 0 0 0 0 0 0 0 0 0 0 0 0 0 0 0 0 0 0 0 0 0 0 0 0 0 0 0 0 0 0 0 0 0 0 0
0 0 0 0 0 0 0 0 0 0 0 0 0 0 0 0 0 0 0 0 0 0 0 0 0 0 0 0 0 0 0 0 0 0 0 0 0 0 0 0 0 0 0
0 0 0 0 0 0 0 0 0 0 0 0 0 0 0 0 0 0 0 0 0 0 0 0 0 0 0 0 0 0 0 0 0 0 0 0 0 0 0 0 0 0 0
0 0 0 0 0 0 0 0 0 0 0 0 0 0 0 0 0 0 0 0 0 0 0 0 0 0 0 0 0 0 0 0 0 0 0 0 0 0 0 0 0 0 0
0 0 0 0 0 0 0 0 0 0 0 0 0 0 0 0 0 0 0 0 0 0 0 0 0 0 0 0 0 0 0 0 0 0 0 0 0 0 0 0 0 0 0
0 0 0 0 0 0 0 0 0 0 0 0 0 0 0 0 0 0 0 0 0 0 0 0 0 0 0 0 0 0 0 0 0 0 0 0 0 0 0 0 0 0 0
Wind_Speed
3 4 4 3 3 4 4 4 4 4 3 4 4 5 5 6 6 6 6 6 7 7 6 7 7 6 5 5 5 5 5 5 7 5 3 3 4 5 4 5 5 5 5
2 3 3 3 2 3 3 3 3 3 3 3 3 4 5 5 5 6 6 7 7 7 7 7 7 5 7 5 5 6 5 6 6 7 5 4 5 5 5 5 5 5 5
2 2 2 2 2 3 3 2 2 2 2 2 2 3 3 4 4 5 6 6 6 7 7 7 7 6 7 5 6 6 5 5 5 5 5 4 4 4 5 5 5 5 5
1 2 2 2 2 2 2 2 2 2 2 2 2 2 3 2 3 3 4 5 5 5 5 6 6 7 7 7 6 6 5 5 5 5 5 4 4 3 4 4 5 4 4
1 1 2 2 2 2 1 2 2 2 2 2 2 2 2 2 2 3 3 4 5 5 5 5 6 6 7 6 5 5 5 5 5 5 5 4 4 3 4 3 5 4 5
1 1 1 1 1 1 2 2 2 2 2 1 2 2 3 2 3 3 3 4 4 5 5 5 5 5 6 8 8 8 7 7 6 6 5 6 6 5 4 4 4 4 5
1 1 1 1 1 1 1 1 1 2 2 2 2 2 3 3 3 4 5 4 4 4 4 4 3 3 4 4 6 8 8 9 9 7 7 8 7 6 5 5 5 6 6
1 1 1 1 1 1 1 1 2 2 2 2 2 2 2 3 3 4 4 4 4 4 4 4 4 4 3 4 4 5 6 6 7 7 7 7 6 5 5 6 6 6 6
1 2 2 2 2 1 1 2 2 2 2 2 2 2 3 3 3 3 3 3 3 4 4 4 4 5 4 5 5 5 5 5 5 6 7 6 6 6 4 3 3 4 5
3 2 2 2 2 2 2 2 2 2 2 2 2 2 3 3 3 3 4 2 3 3 4 4 4 5 5 6 5 5 6 5 3 3 4 4 4 3 4 4 4 4 4
2 2 2 2 2 2 2 1 1 1 1 2 2 3 3 3 4 4 4 2 3 3 3 3 3 5 7 7 7 6 6 5 3 3 3 3 2 2 3 3 4 4 5
1 1 1 2 1 1 1 1 1 1 1 2 2 3 3 3 3 4 5 5 4 4 4 3 3 5 6 7 5 5 5 3 2 2 3 3 3 3 3 3 4 5 5
1 2 2 1 1 1 1 1 1 1 2 2 2 3 3 3 3 5 6 7 7 5 4 5 5 6 6 5 5 5 3 2 3 3 4 4 3 3 3 3 4 4 5
1 2 2 1 2 2 1 1 1 2 2 2 3 3 4 3 3 3 3 4 5 5 4 4 5 6 5 4 3 3 3 3 3 4 4 4 3 3 3 3 3 3 4
2 2 2 2 2 2 2 2 3 3 3 3 3 3 4 5 5 6 5 4 3 4 3 2 2 2 3 3 2 3 3 3 4 4 4 4 3 3 3 3 3 4 5
2 2 2 2 2 2 3 3 4 5 6 7 6 6 5 7 8 8 8 8 6 4 3 3 3 3 4 4 3 3 3 4 4 4 4 4 4 4 4 3 4 4 6
3 3 2 2 2 2 3 3 4 5 6 7 8 8 8 8 9 9 8 7 6 4 4 4 4 4 4 4 4 4 4 4 4 4 5 4 4 4 4 4 4 5 6
4 3 3 3 3 3 3 4 4 4 5 4 5 8 8 8 8 8 7 5 4 4 4 5 5 4 4 4 4 4 4 4 4 4 5 5 5 5 5 5 5 6 6
4 3 3 3 3 3 3 3 4 4 5 5 4 4 5 6 7 7 5 4 5 5 5 5 5 4 5 5 5 5 5 5 5 5 5 5 5 5 6 6 6 7 7
3 4 3 3 3 3 3 4 4 4 4 4 5 4 3 4 4 4 4 4 5 5 5 5 5 5 5 5 5 5 5 5 5 5 5 5 5 5 6 7 6 6 6
3 3 4 3 3 3 3 4 4 4 5 5 5 5 7 5 5 5 5 5 5 5 5 5 5 5 5 5 5 6 6 6 5 5 5 5 5 5 6 6 6 6 6
3 3 3 4 3 4 4 4 4 5 5 6 5 5 7 5 5 5 6 6 5 5 5 5 5 5 5 5 5 6 6 6 6 6 6 6 6 6 6 6 6 6 6
3 3 3 4 4 4 4 4 4 5 5 6 5 5 5 5 5 6 6 6 5 5 5 5 6 5 5 5 6 6 7 7 6 6 6 6 6 6 6 7 8 8 7
3 4 4 4 4 4 4 5 5 5 5 6 5 6 6 6 6 7 6 6 6 5 5 5 6 7 8 7 6 6 7 7 7 7 9 8 8 7 7 7 8 9 8
3 4 4 4 4 4 4 5 5 5 5 6 6 6 6 6 6 6 6 6 6 6 7 6 5 6 8 10 9 8 9 10 9 8 7 8 9 9 9 9 8 8 7
4 4 4 4 4 4 5 5 5 6 6 6 6 6 6 6 6 6 6 5 6 6 6 6 7 8 9 8 10 11 11 11 11 11 9 8 9 9 8 7 9 8 8
Wind_Direction
222 219 219 222 218 215 216 221 227 232 227 221 219 215 217 217 214 213 218 221 223 223 222 226 230 226 224 224 225 227 230 234 251 263 264 262 249 256 259 260 265 262 259
230 218 219 215 205 210 218 223 226 229 229 223 222 221 219 221 218 216 218 221 224 225 224 226 231 226 228 226 224 227 229 230 241 256 260 256 257 261 264 265 266 263 264
229 221 220 221 217 225 231 226 222 224 228 222 221 223 226 224 224 222 221 225 230 231 229 228 232 227 230 228 227 230 231 233 238 248 260 262 264 266 270 268 268 265 263
234 219 230 237 235 236 241 236 230 227 225 224 231 237 238 235 237 236 231 228 233 240 241 237 234 230 231 230 229 232 231 233 235 242 254 261 263 266 264 269 274 268 270
256 246 261 261 253 252 253 247 241 237 236 233 238 248 251 246 245 239 237 238 236 238 239 239 239 237 236 233 232 230 226 229 231 236 247 256 256 256 256 266 272 283 276
244 271 302 299 271 256 256 252 246 246 245 241 239 243 249 250 257 245 245 247 246 243 245 245 243 237 239 236 237 237 233 231 233 236 244 249 254 255 257 259 269 278 275
234 275 308 312 291 275 269 259 257 256 253 247 249 251 256 264 263 255 247 249 251 250 252 255 254 250 242 245 242 240 242 242 238 238 246 251 255 253 252 257 256 260 266
261 299 300 286 283 293 273 254 257 256 254 261 265 268 277 294 282 263 254 245 255 257 256 254 254 255 249 246 249 248 246 245 244 242 250 258 262 259 247 252 259 269 279
270 280 283 278 273 273 267 270 267 263 264 267 277 275 276 288 295 288 274 255 255 260 259 256 254 256 257 243 243 249 256 262 261 253 257 267 273 269 258 253 253 261 271
266 270 273 270 266 261 265 266 271 266 271 284 290 286 285 289 304 295 276 255 260 264 265 261 256 259 264 251 245 245 253 262 262 260 259 263 264 257 250 248 245 255 267
287 293 289 281 274 273 282 287 284 279 284 285 289 292 291 293 299 297 287 262 265 269 268 269 267 262 261 258 252 249 253 263 252 249 249 252 255 250 248 251 252 252 254
298 283 287 298 294 292 300 309 307 287 282 289 293 296 295 296 296 297 291 277 278 267 268 272 276 272 267 263 257 261 268 271 253 245 245 246 249 253 257 258 262 263 266
296 290 300 316 311 315 289 285 299 286 275 282 285 288 295 299 297 293 288 284 281 273 274 281 284 277 272 265 264 268 260 246 240 243 249 255 258 263 264 262 260 263 267
269 284 297 293 299 310 296 273 262 260 267 274 276 281 289 292 293 295 287 280 276 272 273 277 275 271 267 270 272 258 248 243 245 250 259 267 272 265 258 260 265 268 271
273 280 282 276 281 281 276 274 266 261 262 263 266 270 276 280 286 292 292 284 279 272 271 262 262 262 255 254 257 257 252 247 247 252 256 261 262 262 265 265 261 258 261
255 263 264 270 274 276 280 288 289 286 288 276 277 280 279 281 293 284 282 284 279 271 259 257 254 251 253 256 258 258 254 252 254 255 253 255 257 259 263 262 259 258 263
251 253 257 261 263 266 271 276 289 293 283 281 280 281 282 290 290 287 283 281 268 252 241 250 253 253 253 254 255 257 260 259 256 253 253 254 256 258 260 261 260 261 264
252 249 249 254 261 263 264 269 273 279 287 284 281 282 286 292 293 291 290 283 258 239 241 247 250 253 254 255 255 257 260 260 255 252 252 252 251 253 254 256 257 261 266
250 252 253 258 261 263 266 267 268 269 273 284 291 289 286 290 291 288 283 259 257 254 250 249 250 251 252 254 255 254 254 254 255 255 253 251 250 251 254 256 258 260 261
251 261 261 260 260 262 263 263 264 266 270 274 277 286 298 287 275 274 264 260 256 258 257 254 251 247 248 249 251 250 251 251 252 251 253 253 250 249 254 258 259 260 261
255 255 251 255 256 258 260 261 261 263 265 270 274 278 283 278 272 267 263 260 257 259 260 258 254 248 243 243 244 246 248 251 251 251 252 253 252 252 253 255 258 259 263
253 251 249 252 257 259 262 263 261 261 264 269 277 281 278 273 271 272 269 267 263 259 259 258 255 251 246 243 243 245 248 250 251 251 251 251 250 252 253 252 254 257 258
254 256 255 255 257 260 261 260 259 261 265 268 272 274 271 267 268 269 269 272 274 270 263 257 255 255 252 247 245 244 247 248 249 248 250 253 252 251 252 252 252 255 256
250 253 258 259 257 257 258 262 263 264 266 268 269 269 269 269 269 271 271 272 273 270 266 262 256 255 258 258 252 247 248 252 252 248 246 248 252 253 253 253 252 251 255
250 252 254 257 257 256 259 262 263 264 265 266 267 268 269 270 271 272 272 270 271 269 268 267 263 262 261 261 262 260 257 255 253 248 246 246 248 249 250 252 251 251 250
252 254 256 256 257 257 257 259 262 264 265 266 267 267 267 268 270 272 272 270 272 271 271 269 266 268 271 270 267 267 266 261 254 249 244 245 248 248 247 249 251 249 249